User: anonymous   Login
Location: Girdwood
(60.9430°N, 149.1660°W)
Time: 03:04:40
(UTC-08:00)
Language:

Iridium 86 - Orbit

View from above orbital plane
View from above orbital plane
View from above satellite
View from above satellite

Ground track
Ground track

The orbit data is extracted from the following two-line orbital elements,

1 25528U 98066B   17145.57791413 +.00000085 +00000-0 +23342-4 0  9997
2 25528 086.3954 359.2598 0002351 086.3144 273.8320 14.34218980975889
Epoch (UTC): 25 May 2017 13:52:11
Eccentricity: 0.0002351
inclination: 86.3954°
perigee height: 776 km
apogee height: 779 km
right ascension of ascending node: 359.2598°
argument of perigee: 86.3144°
revolutions per day: 14.34218980
mean anomaly at epoch: 273.8320°
orbit number at epoch: 97588

The dashed part of the orbit path shows where the satellite is in the earth's shadow,  

DLR